[[{"header":{"parameterUnit":"m.s-1","parameterCategory":1,"la1":30.2991,"la2":30.254,"lo1":-89.0895,"lo2":-89.0444,"dy":0.0017,"dx":0.0017,"nx":28,"ny":28,"refTime":"2023-08-29T21:00:00:Z","depth":0,"parameterNumber":2,"parameterNumberName":"U-component_of_WINDS"},"data":[0,0,0,0,0,0,0,0,0,0,0,0,0,0,0,0,0,0,0,0,0,0,0,0,0,0,0,0,0,0,0,0,0,0,0,0,0,0,0,0,0,0,0,0,0,0,0,0,0,0,0,0,0,0,0,0,0,0,-0.9989,-0.9988,0,-0.9927,-0.9926,-0.9925,-0.9833,-0.9831,-0.983,-0.9828,-0.9767,-0.9767,-0.9767,0,0,0,0,0,0,0,0,0,0,0,0,0,-1.003,-1.003,-0.9989,-0.9988,-0.9987,-0.9927,-0.9926,-0.9925,-0.9833,-0.9831,-0.9829,-0.9827,-0.9767,-0.9767,-0.9767,0,0,0,0,0,0,0,0,0,0,0,0,0,-0.9994,-1.0029,-0.9989,-0.9934,-0.9928,-0.9927,-0.9926,-0.9925,-0.9834,-0.9831,-0.9829,-0.9826,-0.9767,-0.9767,-0.9767,-0.9814,0,0,-0.9766,-0.9766,0,0,0,0,0,0,0,0,-0.9997,-0.9993,-0.9943,-0.9938,-0.9931,-0.9885,-0.9918,-0.9888,-0.9834,-0.987,-0.9828,-0.9825,-0.9808,-0.9805,-0.9798,-0.9812,-0.9809,-0.9766,-0.9766,-0.9766,-0.9766,0,0,0,0,0,0,0,-0.9999,-0.9995,-0.9964,-0.9942,-0.9935,-0.9913,-0.9905,-0.9912,-0.9854,-0.9866,-0.9859,-0.9853,-0.9805,-0.9799,-0.9796,-0.9808,-0.9766,-0.9766,-0.9766,-0.9766,-0.9858,-0.986,0,0,0,0,0,0,-1.0009,-0.9998,-0.9966,-0.9962,-0.9959,-0.9914,-0.9906,-0.9902,-0.9853,-0.9843,-0.9855,-0.9849,-0.98,-0.9797,-0.9794,-0.9846,-0.9766,-0.9766,-0.9766,-0.9855,-0.9858,-0.9861,0,0,0,0,0,0,-1.0011,-1.0007,-0.9969,-0.9978,-0.9971,-0.9916,-0.9913,-0.9902,-0.9896,-0.9845,-0.9834,-0.986,-0.9798,-0.9794,-0.981,-0.9843,-0.9766,-0.9766,-0.9852,-0.9856,-0.986,-0.9953,0,0,0,0,0,0,-1.0012,-1.0008,-1.0026,-0.9979,-0.9971,-0.9985,-0.9915,-0.9903,-0.9896,-0.9887,-0.9846,-0.9837,-0.9796,-0.9811,-0.981,-0.9841,-0.9765,-0.9849,-0.9854,-0.9858,-0.9946,-0.9959,-0.997,0,0,0,0,0,-1.0014,-1.0055,-1.0027,-1.0024,-0.9991,-0.9987,-0.9983,-0.9934,-0.9899,-0.9916,-0.9883,-0.9838,-0.984,-0.9813,-0.9811,-0.9843,-0.9847,-0.9853,-0.9858,-0.9941,-0.9957,-0.997,0,0,0,0,0,0,-1.0107,-1.0048,-1.0016,-1.0043,-1.0021,-0.9972,-0.9992,-0.9952,-0.994,-0.9933,-0.9873,-0.9865,-0.9889,-0.9867,-0.9839,-0.9887,-0.9836,-0.9842,-0.99,-0.9914,-0.9926,-0.9931,-0.9765,0,0,0,0,0,-1.0131,-1.0132,-1.008,-1.0108,-1.0099,-1.0048,-1.0044,-1.0008,-0.9983,-0.9974,-0.9942,-0.992,-0.9915,-0.9914,-0.9907,-0.9943,-0.9933,-0.9964,-0.9976,-0.9986,-0.9992,-1.001,-1.0023,-0.988,-0.988,-0.988,0,0,-1.0179,-1.0147,-1.0151,-1.0126,-1.0105,-1.0108,-1.004,-1.0046,-1.0048,-0.9975,-0.9988,-0.9964,-0.9936,-0.9962,-0.9972,-0.9945,-1.0029,-0.9993,-1.0002,-1.0002,-1.0017,-1.003,-1.0043,-0.9884,-0.9883,-0.9882,0,0,-1.027,-1.0245,-1.0266,-1.0246,-1.0215,-1.018,-1.0186,-1.0143,-1.0124,-1.0135,-1.0081,-1.0082,-1.0076,-1.0058,-1.0048,-1.0132,-1.0091,-1.0132,-1.0194,-1.0212,-1.0223,-1.0233,-1.0263,-1.0274,-1.0137,-1.0138,-1.0138,0,-1.0335,-1.0336,-1.0282,-1.0292,-1.0283,-1.0216,-1.0237,-1.0221,-1.0189,-1.0185,-1.0155,-1.0145,-1.0121,-1.0143,-1.0163,-1.0157,-1.0162,-1.0136,-1.0226,-1.0235,-1.0243,-1.0271,-1.0283,-1.0143,-1.0142,-1.0142,-1.0141,0,-1.0417,-1.042,-1.044,-1.0411,-1.0404,-1.042,-1.0369,-1.0369,-1.0334,-1.0303,-1.0316,-1.0285,-1.0271,-1.0273,-1.024,-1.029,-1.0275,-1.0236,-1.0184,-1.0263,-1.0288,-1.0299,-1.015,-1.0148,-1.0147,-1.0146,0,0,-1.0564,-1.0505,-1.0513,-1.0499,-1.0459,-1.046,-1.0473,-1.0458,-1.0459,-1.044,-1.045,-1.0446,-1.041,-1.0399,-1.0363,-1.0379,-1.0447,-1.0338,-1.0336,-1.0359,-1.0501,-1.0531,-1.0544,-1.042,-1.0422,-1.0423,-1.0504,0,-1.0647,-1.0664,-1.0617,-1.0646,-1.0648,-1.0585,-1.0596,-1.0573,-1.0545,-1.0543,-1.0512,-1.051,-1.0463,-1.0456,-1.0468,-1.0436,-1.0475,-1.043,-1.0429,-1.0429,-1.0437,-1.0557,-1.0588,-1.0665,-1.0513,-1.0515,-1.0516,0,-1.0745,-1.073,-1.076,-1.0719,-1.0718,-1.0728,-1.0711,-1.071,-1.0683,-1.0661,-1.0649,-1.0607,-1.0617,-1.0567,-1.0581,-1.0552,-1.0548,-1.0533,-1.0534,-1.0532,-1.0478,-1.0558,-1.0689,-1.0701,-1.0531,-1.053,-1.0529,0,-1.0849,-1.0837,-1.0853,-1.0842,-1.0795,-1.0804,-1.0785,-1.0756,-1.075,-1.0735,-1.0731,-1.0718,-1.0711,-1.0703,-1.0658,-1.0626,-1.0678,-1.0624,-1.066,-1.0662,-1.0674,-1.0674,-1.0806,-1.0673,-1.0672,-1.0672,-1.0672,0,-1.0946,-1.0967,-1.0899,-1.0909,-1.093,-1.0876,-1.0899,-1.0874,-1.0849,-1.0853,-1.0798,-1.0804,-1.0744,-1.0744,-1.0709,-1.0726,-1.0724,-1.0707,-1.0697,-1.0712,-1.0714,-1.0709,-1.0702,-1.0675,-1.0675,-1.0674,-1.0673,0,-1.1066,-1.1021,-1.1035,-1.0988,-1.0977,-1.0995,-1.0956,-1.0964,-1.0932,-1.0939,-1.0937,-1.0888,-1.0884,-1.0839,-1.0826,-1.0802,-1.0833,-1.0813,-1.0842,-1.0836,-1.0875,-1.0872,-1.1008,-1.1023,-1.0881,-1.0882,-1.0883,0,-1.1131,-1.1145,-1.11,-1.1099,-1.1082,-1.1081,-1.1075,-1.1022,-1.1018,-1.0989,-1.1,-1.0992,-1.0983,-1.098,-1.0943,-1.0933,-1.0913,-1.0962,-1.0911,-1.0925,-1.0914,-1.0913,-1.0915,-1.0972,-1.0974,-1.0976,-1.0977,0,-1.125,-1.1227,-1.122,-1.1205,-1.1199,-1.1185,-1.1168,-1.117,-1.1112,-1.111,-1.1105,-1.1098,-1.1084,-1.1077,-1.1061,-1.1041,-1.1,-1.0993,-1.1001,-1.1016,-1.1031,-1.1023,-1.0871,-1.099,-1.0989,-1.0988,-1.0987,-1.0986,-1.1344,-1.1354,-1.1324,-1.1318,-1.1299,-1.1284,-1.1289,-1.1258,-1.1253,-1.1237,-1.1206,-1.1207,-1.118,-1.1153,-1.1138,-1.1138,-1.1113,-1.1124,-1.1127,-1.1131,-1.1139,-1.1032,-1.1135,-1.1134,-1.1134,-1.1133,-1.1133,0,-1.1461,-1.1439,-1.1433,-1.141,-1.1406,-1.1366,-1.1345,-1.1344,-1.1345,-1.1323,-1.1315,-1.131,-1.1303,-1.1266,-1.1255,-1.1262,-1.1242,-1.1261,-1.1259,-1.1256,-1.1161,-1.1156,-1.1276,-1.1276,-1.1276,-1.1276,-1.1276,-1.1276,-1.1521,-1.1536,-1.151,-1.1515,-1.1492,-1.1491,-1.1482,-1.1469,-1.1451,-1.1448,-1.1441,-1.1417,-1.1389,-1.1376,-1.1368,-1.1357,-1.1356,-1.138,-1.1364,-1.1276,-1.1262,-1.1249,-1.1243,-1.1381,-1.1381,-1.1458,-1.1458,-1.1459]},{"header":{"parameterUnit":"m.s-1","parameterCategory":1,"la1":30.2991,"la2":30.254,"lo1":-89.0895,"lo2":-89.0444,"dy":0.0017,"dx":0.0017,"nx":28,"ny":28,"refTime":"2023-08-29T21:00:00:Z","depth":0,"parameterNumber":3,"parameterNumberName":"V-component_of_WINDS"},"data":[0,0,0,0,0,0,0,0,0,0,0,0,0,0,0,0,0,0,0,0,0,0,0,0,0,0,0,0,0,0,0,0,0,0,0,0,0,0,0,0,0,0,0,0,0,0,0,0,0,0,0,0,0,0,0,0,0,0,-0.4812,-0.4813,0,-0.4874,-0.4875,-0.4876,-0.488,-0.4879,-0.4878,-0.4877,-0.4943,-0.4946,-0.4948,0,0,0,0,0,0,0,0,0,0,0,0,0,-0.4698,-0.47,-0.4812,-0.4813,-0.4814,-0.4874,-0.4875,-0.4876,-0.488,-0.4879,-0.4878,-0.4877,-0.4943,-0.4945,-0.4948,0,0,0,0,0,0,0,0,0,0,0,0,0,-0.4753,-0.4701,-0.4812,-0.4823,-0.4824,-0.4874,-0.4875,-0.4876,-0.488,-0.4879,-0.4878,-0.4877,-0.4942,-0.4945,-0.4949,-0.4993,0,0,-0.496,-0.4961,0,0,0,0,0,0,0,0,-0.4749,-0.4757,-0.482,-0.4822,-0.4824,-0.4868,-0.4859,-0.4915,-0.488,-0.4859,-0.4877,-0.4876,-0.4919,-0.4925,-0.4939,-0.4996,-0.4999,-0.496,-0.4962,-0.4964,-0.4965,0,0,0,0,0,0,0,-0.4746,-0.4754,-0.4837,-0.4821,-0.4824,-0.4825,-0.4832,-0.487,-0.4894,-0.4861,-0.4861,-0.4868,-0.492,-0.4935,-0.494,-0.5,-0.496,-0.4963,-0.4966,-0.4967,-0.5095,-0.5096,0,0,0,0,0,0,-0.474,-0.4751,-0.4835,-0.4839,-0.4783,-0.4828,-0.4835,-0.4855,-0.4894,-0.4899,-0.4869,-0.4868,-0.493,-0.4936,-0.4943,-0.4996,-0.4964,-0.4967,-0.4969,-0.5094,-0.5095,-0.5096,0,0,0,0,0,0,-0.4737,-0.4747,-0.4832,-0.4795,-0.4806,-0.4831,-0.4853,-0.4857,-0.4872,-0.49,-0.4905,-0.488,-0.4929,-0.4938,-0.498,-0.4999,-0.4969,-0.4972,-0.5092,-0.5094,-0.5096,-0.5104,0,0,0,0,0,0,-0.4734,-0.4746,-0.4763,-0.4795,-0.4808,-0.4868,-0.4854,-0.4859,-0.4878,-0.4877,-0.4912,-0.4917,-0.4929,-0.4974,-0.4983,-0.5003,-0.4975,-0.5091,-0.5093,-0.5095,-0.5102,-0.5106,-0.5109,0,0,0,0,0,-0.473,-0.4764,-0.4764,-0.4774,-0.4829,-0.4869,-0.4877,-0.4889,-0.488,-0.4897,-0.4915,-0.4915,-0.4995,-0.4979,-0.4989,-0.501,-0.5089,-0.5092,-0.5095,-0.5101,-0.5105,-0.5109,0,0,0,0,0,0,-0.4734,-0.4768,-0.4769,-0.4814,-0.4838,-0.487,-0.4892,-0.4894,-0.4923,-0.4921,-0.4936,-0.4944,-0.4986,-0.5002,-0.4983,-0.5054,-0.5041,-0.5046,-0.5042,-0.5047,-0.505,-0.5046,-0.4978,0,0,0,0,0,-0.474,-0.4769,-0.4797,-0.4835,-0.4847,-0.4867,-0.4885,-0.4893,-0.4919,-0.493,-0.4951,-0.4977,-0.5008,-0.5028,-0.5058,-0.5104,-0.5112,-0.5124,-0.5127,-0.513,-0.5134,-0.5159,-0.5165,-0.5105,-0.5105,-0.5105,0,0,-0.4753,-0.4775,-0.4793,-0.4836,-0.4856,-0.4886,-0.4876,-0.4909,-0.4931,-0.4935,-0.4976,-0.4992,-0.5022,-0.5067,-0.5087,-0.5082,-0.5152,-0.5133,-0.5135,-0.5138,-0.5163,-0.5169,-0.5174,-0.5107,-0.5107,-0.5106,0,0,-0.4792,-0.4812,-0.4845,-0.4864,-0.4894,-0.4907,-0.4915,-0.4946,-0.4957,-0.4998,-0.5001,-0.5028,-0.5081,-0.5102,-0.512,-0.5165,-0.5167,-0.5175,-0.5193,-0.5217,-0.5222,-0.5226,-0.5243,-0.5248,-0.5179,-0.5179,-0.5179,0,-0.4805,-0.485,-0.4862,-0.4894,-0.4912,-0.4916,-0.4949,-0.4968,-0.5007,-0.502,-0.5012,-0.5078,-0.5099,-0.5148,-0.5158,-0.5173,-0.5182,-0.5171,-0.522,-0.5225,-0.5229,-0.5245,-0.5251,-0.5179,-0.5179,-0.5179,-0.5179,0,-0.4864,-0.4895,-0.4918,-0.4954,-0.4975,-0.5008,-0.5025,-0.5045,-0.505,-0.5064,-0.5105,-0.513,-0.5164,-0.5176,-0.5182,-0.5226,-0.5222,-0.5217,-0.5205,-0.5235,-0.525,-0.5256,-0.518,-0.518,-0.518,-0.518,0,0,-0.491,-0.495,-0.4958,-0.4974,-0.5007,-0.5031,-0.5064,-0.5096,-0.5113,-0.5139,-0.5167,-0.5211,-0.5207,-0.5227,-0.5235,-0.5256,-0.529,-0.5249,-0.525,-0.5256,-0.534,-0.5344,-0.535,-0.5291,-0.5292,-0.5293,-0.5338,0,-0.4953,-0.501,-0.5021,-0.5071,-0.5099,-0.5102,-0.5131,-0.5154,-0.5167,-0.5194,-0.5209,-0.5239,-0.5231,-0.5243,-0.5264,-0.5282,-0.5308,-0.5279,-0.5318,-0.5319,-0.5311,-0.5358,-0.5362,-0.5403,-0.5344,-0.5345,-0.5345,0,-0.5011,-0.5037,-0.509,-0.5118,-0.513,-0.5155,-0.5186,-0.5211,-0.5237,-0.5245,-0.5266,-0.5272,-0.5306,-0.5291,-0.5338,-0.5318,-0.5334,-0.5345,-0.5347,-0.5352,-0.5335,-0.5365,-0.5416,-0.5423,-0.5355,-0.5354,-0.5353,0,-0.5039,-0.5088,-0.5125,-0.5139,-0.5172,-0.5189,-0.5204,-0.5229,-0.5247,-0.5274,-0.5286,-0.5317,-0.5334,-0.5358,-0.5371,-0.5359,-0.5417,-0.5403,-0.5426,-0.5425,-0.5439,-0.5438,-0.5494,-0.5448,-0.5448,-0.5448,-0.5448,0,-0.5087,-0.5119,-0.5138,-0.5161,-0.5197,-0.5209,-0.5244,-0.5259,-0.528,-0.5307,-0.5311,-0.5336,-0.5352,-0.5379,-0.5389,-0.5427,-0.5434,-0.5442,-0.5445,-0.5442,-0.5441,-0.5454,-0.5452,-0.545,-0.5449,-0.5449,-0.5449,0,-0.5124,-0.5138,-0.518,-0.5207,-0.5214,-0.524,-0.5263,-0.5286,-0.5299,-0.5332,-0.534,-0.5361,-0.5392,-0.5408,-0.5448,-0.5455,-0.5497,-0.5498,-0.5488,-0.5489,-0.5511,-0.5509,-0.5578,-0.5587,-0.5535,-0.5535,-0.5535,0,-0.5154,-0.5179,-0.5208,-0.5226,-0.524,-0.5269,-0.5287,-0.5299,-0.5319,-0.5349,-0.5368,-0.54,-0.5426,-0.5477,-0.5495,-0.5526,-0.5527,-0.5549,-0.5532,-0.5528,-0.5528,-0.5527,-0.5529,-0.5553,-0.5553,-0.5554,-0.5554,0,-0.5206,-0.5211,-0.5237,-0.5266,-0.5288,-0.5311,-0.5334,-0.5348,-0.5364,-0.5385,-0.5417,-0.5437,-0.5477,-0.5509,-0.554,-0.5556,-0.5558,-0.5559,-0.5566,-0.5564,-0.5558,-0.5562,-0.5497,-0.5558,-0.5557,-0.5557,-0.5557,-0.5557,-0.5241,-0.5262,-0.5286,-0.5315,-0.5333,-0.5354,-0.5377,-0.5391,-0.5418,-0.5451,-0.5456,-0.549,-0.5515,-0.5557,-0.5573,-0.56,-0.5595,-0.5605,-0.5608,-0.561,-0.5612,-0.5552,-0.5606,-0.5606,-0.5606,-0.5606,-0.5606,0,-0.5292,-0.5307,-0.5334,-0.5365,-0.5388,-0.5386,-0.5411,-0.543,-0.546,-0.5482,-0.5507,-0.5544,-0.5574,-0.5594,-0.5625,-0.5643,-0.5645,-0.5651,-0.565,-0.5653,-0.5614,-0.5605,-0.5649,-0.5649,-0.5649,-0.5649,-0.5649,-0.5649,-0.5322,-0.5359,-0.5366,-0.5412,-0.5427,-0.5459,-0.5474,-0.5493,-0.5511,-0.5551,-0.5576,-0.5588,-0.561,-0.5642,-0.5669,-0.5675,-0.5686,-0.5692,-0.5698,-0.5661,-0.5656,-0.5652,-0.5644,-0.5694,-0.5695,-0.5735,-0.5735,-0.5735]}]]